Flag for Germany Weather past 2 weeks in Bergisch Gladbach, North Rhine-Westphalia, Germany

Now
37 °F

Clear.


Feels Like: 37 °F
Forecast: 34 / 58 °F
Wind: 2 mph from Northwest

Location: Koeln / Bonn

Current Time: Apr 28, 2015 at 4:10:37 AM

Latest Report: Apr 28, 2015 at 3:20 AM


Visibility: 10 mi

Pressure: 29.86 "Hg

Humidity: 93%

Dew point: 36 °F

Location of Bergisch GladbachLocation

Historic Weather in Bergisch Gladbach — Graph

°F

Bergisch Gladbach temperature yesterday

Maximum temperature yesterday: 54 °F (at 12:20 AM)
Minimum temperature yesterday: 43 °F (at 10:50 PM)
Average temperature yesterday: 49 °F

Past Weeks' High & Low Weather Summary

 TemperatureHumidityPressure
High77 °F (Apr 15, 4:20 PM)100% (Apr 23, 7:20 AM)30.48 "Hg (Apr 23, 7:20 AM)
Low30 °F (Apr 19, 6:50 AM)22% (Apr 24, 5:20 PM)29.59 "Hg (Apr 27, 3:20 AM)
Average53 °F62%30.09 "Hg
* Reported Apr 13 2:20 AM — Apr 28 2:50 AM, Bergisch Gladbach, Weather by CustomWeather, © 2015

Note: Actual official high and low records may vary slightly from our data, if they occured in-between our weather recording intervals... More about our weather records

Advertising

Bergisch Gladbach weather history for previous 24 hours

 ConditionsComfort  
Time TempWeatherWind HumidityBarometerVisibility
2:50 AM
Tue, Apr 28
37 °FClear.2 mph93%29.86 "Hg10 mi
2:20 AM39 °FFog.3 mph93%29.83 "HgN/A
1:50 AM39 °FPassing clouds.3 mph93%29.83 "HgN/A
1:20 AM41 °FFog.5 mph87%29.83 "HgN/A
12:50 AM41 °FPassing clouds.3 mph93%29.83 "HgN/A
12:20 AM43 °FPassing clouds.3 mph87%29.83 "HgN/A
11:50 PM
Mon, Apr 27
43 °FPassing clouds.3 mph87%29.80 "HgN/A
11:20 PM43 °FPassing clouds.5 mph87%29.80 "HgN/A
10:50 PM43 °FPassing clouds.6 mph87%29.80 "HgN/A
10:20 PM45 °FPassing clouds.5 mph87%29.80 "HgN/A
9:50 PM45 °FPassing clouds.5 mph87%29.80 "HgN/A
9:20 PM46 °FPartly sunny.6 mph82%29.80 "HgN/A
8:50 PM46 °FPartly sunny.6 mph76%29.77 "HgN/A
8:20 PM46 °FBroken clouds.6 mph76%29.77 "HgN/A
7:50 PM48 °FBroken clouds.7 mph71%29.77 "HgN/A
7:20 PM48 °FPartly sunny.6 mph71%29.77 "HgN/A
6:50 PM48 °FPartly sunny.7 mph71%29.74 "HgN/A
6:20 PM48 °FPartly sunny.6 mph71%29.77 "HgN/A
5:50 PM48 °FLight rain. Broken clouds.6 mph76%29.77 "HgN/A
5:20 PM48 °FLight rain. Broken clouds.8 mph76%29.77 "HgN/A
4:50 PM46 °FLight rain. Broken clouds.12 mph76%29.74 "HgN/A
4:20 PM46 °FLight rain. Broken clouds.10 mph82%29.74 "HgN/A
3:50 PM46 °FLight rain. Partly sunny.12 mph82%29.74 "HgN/A
3:20 PM46 °FLight rain. Partly sunny.12 mph82%29.74 "HgN/A
2:50 PM46 °FLight rain. Partly sunny.12 mph82%29.74 "HgN/A
2:20 PM46 °FLight rain. Partly sunny.12 mph87%29.74 "HgN/A
1:50 PM46 °FLight rain. Broken clouds.12 mph87%29.74 "HgN/A
1:20 PM46 °FLight rain. Broken clouds.10 mph87%29.71 "HgN/A
12:50 PM46 °FBroken clouds.10 mph87%29.71 "HgN/A
12:20 PM46 °FBroken clouds.10 mph93%29.71 "HgN/A
11:50 AM46 °FBroken clouds.12 mph87%29.71 "HgN/A
11:20 AM48 °FBroken clouds.12 mph87%29.71 "HgN/A
10:50 AM48 °FBroken clouds.10 mph94%29.68 "HgN/A
10:20 AM48 °FLight rain. Broken clouds.9 mph94%29.68 "Hg6 mi
9:50 AM48 °FBroken clouds.9 mph94%29.68 "Hg5 mi
9:20 AM48 °FBroken clouds.10 mph94%29.65 "Hg4 mi
8:50 AM48 °FFog.12 mph94%29.65 "Hg2 mi
8:20 AM48 °FFog.15 mph94%29.65 "Hg2 mi
7:50 AM50 °FFog.14 mph94%29.65 "Hg2 mi
7:20 AM50 °FDrizzle. Broken clouds.13 mph94%29.62 "Hg4 mi
6:50 AM52 °FPartly cloudy.8 mph94%29.62 "Hg4 mi
6:20 AM52 °FLight rain. Passing clouds.8 mph94%29.62 "Hg4 mi
5:50 AM52 °FPartly cloudy.7 mph94%29.62 "Hg4 mi
5:20 AM52 °FDrizzle. Fog.10 mph94%29.62 "Hg2 mi
4:50 AM52 °FLight rain. Fog.5 mph100%29.59 "Hg2 mi
4:20 AM52 °FLight rain. Fog.3 mph100%29.59 "Hg3 mi
Weather by CustomWeather, © 2015

See weather overviewHow to use our weather pages